sat.trackr.live / text

‹ back to catalog

STARLINK-30407

NORAD 57823 · 2023-138R

PAYLOAD ACTIVE UNKNOWN

§ Identity

Operator
Country
US
Launch date
2023-09-09
Launch site
AFETR
Launch vehicle
Mass (kg)
RCS (m²)

Purposes: comms

External: N2YO · Heavens-Above · Gunter

§ Orbital elements

Epoch: 2026-05-25T02:34:19.887168Z

Period
94.27 min
Inclination
43.0005°
Eccentricity
0.0000832
Mean motion
15.27585923 rev/d
Perigee alt
482.5 km
Apogee alt
483.6 km
Semi-major
6,861.2 km
B*
1.5171e-5
RAAN
57.2157°
Arg perigee
247.1222°
Mean anomaly
112.9542°
Rev number
15,165

§ Raw data

STARLINK-304071 57823U 23138R   26145.10717462  .00000156  00000+0  15171-4 0  99982 57823  43.0005  57.2157 0000832 247.1222 112.9542 15.27585923151658

JSON: /api/v1/satellites/57823 · /tle

For live sub-satellite position, see the globe view (requires WebGL).

§ Visibility from observer

Set your observer location to see the next 7 days of passes ≥ 10°. The values pass through the URL so the page stays shareable.

No JS? Fill the form by hand. The geolocation button needs JavaScript.